This is the latest recevied weather packets stored in our database for station/object AA4OM-2. If no packets are shown the sender has not sent any weather packets the latest 10 day(s).
| Time | Temp. | Humidity | Pressure | Rain* | Wind** | Luminosity | Snow |
|---|---|---|---|---|---|---|---|
| 1777121205 | 15.56° C | 99% | 1011.2 hPa | 0 mm | - | 58 W/m² | - |
| 1777120902 | 15.56° C | 99% | 1011.1 hPa | 0 mm | - | 50 W/m² | - |
| 1777120599 | 15° C | 99% | 1011.2 hPa | 0 mm | - | 44 W/m² | - |
| 1777120294 | 15° C | 99% | 1011.1 hPa | 0 mm | - | 35 W/m² | - |
| 1777119988 | 15° C | 99% | 1011.2 hPa | 0 mm | - | 31 W/m² | - |
| 1777119687 | 14.44° C | 99% | 1011.1 hPa | 0 mm | - | 25 W/m² | - |
| 1777119382 | 14.44° C | 99% | 1010.9 hPa | 0 mm | - | 20 W/m² | - |
| 1777119082 | 14.44° C | 99% | 1011.1 hPa | 0 mm | - | 19 W/m² | - |
| 1777118777 | 14.44° C | 99% | 1010.9 hPa | 0 mm | - | 20 W/m² | - |
| 1777118474 | 14.44° C | 99% | 1010.8 hPa | 0 mm | - | 22 W/m² | - |
| 1777118169 | 14.44° C | 99% | 1010.7 hPa | 0 mm | - | 23 W/m² | - |
| 1777117866 | 14.44° C | 99% | 1010.8 hPa | 0 mm | - | 23 W/m² | - |
| 1777117563 | 14.44° C | 99% | 1010.8 hPa | 0 mm | - | 21 W/m² | - |
| 1777117261 | 14.44° C | 99% | 1010.6 hPa | 0 mm | - | 18 W/m² | - |
| 1777116961 | 14.44° C | 99% | 1010.5 hPa | 0 mm | - | 14 W/m² | - |
| 1777116657 | 14.44° C | 99% | 1010.6 hPa | 0 mm | - | 11 W/m² | - |
| 1777116353 | 14.44° C | 99% | 1010.6 hPa | 0 mm | - | 9 W/m² | - |
| 1777116048 | 14.44° C | 99% | 1010.5 hPa | 0 mm | - | 5 W/m² | - |
| 1777115743 | 14.44° C | 99% | 1010.6 hPa | 0 mm | - | 3 W/m² | - |
| 1777115439 | 14.44° C | 99% | 1010.7 hPa | 0 mm | - | 2 W/m² | - |
| 1777115135 | 14.44° C | 99% | 1010.8 hPa | 0 mm | - | 1 W/m² | - |
| 1777114833 | 14.44° C | 99% | 1010.7 hPa | 0 mm | - | 1 W/m² | - |
| 1777114528 | 14.44° C | 99% | 1010.8 hPa | 0 mm | - | 0 W/m² | - |
| 1777114224 | 14.44° C | 99% | 1010.6 hPa | 0 mm | - | 0 W/m² | - |
| 1777113920 | 14.44° C | 99% | 1010.7 hPa | 0 mm | - | 0 W/m² | - |
* Rain latest hour (hover to see other rain measurements)
** Current wind speed in m/s (hover to see current wind gust speed)